ETD1387 YMML-NZAA

Flight info

Callsign ETD1387
Flight time N/A
Altitude 37000
Route CORRS Y81 GEMAC N759 PEBLU
Aircraft B77W/H-SDE1E2E3FGHIJ2J3J4J5M1RWXY/LB1D1

Departure

Time 2026-05-04 05:04
Airport Melbourne Airport (YMML)

Arrival

Time N/A
Airport Auckland International Airport (NZAA)
Time Latitude Longitude Altitude Speed Heading
2026-05-04 04:20 -37.66913 144.84512 406 ft 0 kts 10°
2026-05-04 04:55 -37.66929 144.84508 401 ft 4 kts 11°
2026-05-04 04:55 -37.66956 144.84501 401 ft 4 kts 12°
2026-05-04 04:55 -37.66982 144.84495 402 ft 3 kts 10°
2026-05-04 04:55 -37.67003 144.84491 397 ft 4 kts 356°
2026-05-04 04:56 -37.67023 144.84496 401 ft 4 kts 321°
2026-05-04 04:56 -37.67031 144.84503 400 ft 4 kts 270°
2026-05-04 04:56 -37.67025 144.84531 399 ft 4 kts 248°
2026-05-04 04:56 -37.67016 144.84562 398 ft 4 kts 253°
2026-05-04 04:57 -37.67011 144.84588 399 ft 1 kts 267°
2026-05-04 04:59 -37.67012 144.84573 398 ft 8 kts 267°
2026-05-04 04:59 -37.67020 144.84482 399 ft 12 kts 252°
2026-05-04 04:59 -37.67048 144.84375 394 ft 14 kts 259°
2026-05-04 04:59 -37.67097 144.84266 392 ft 16 kts 205°
2026-05-04 05:00 -37.67213 144.84272 390 ft 18 kts 172°
2026-05-04 05:00 -37.67347 144.84298 386 ft 21 kts 171°
2026-05-04 05:00 -37.67667 144.84356 377 ft 26 kts 172°
2026-05-04 05:01 -37.67851 144.84390 371 ft 28 kts 171°
2026-05-04 05:01 -37.68051 144.84429 369 ft 30 kts 171°
2026-05-04 05:01 -37.68220 144.84459 362 ft 22 kts 172°
2026-05-04 05:01 -37.68374 144.84444 357 ft 24 kts 208°
2026-05-04 05:02 -37.68510 144.84328 354 ft 20 kts 220°
2026-05-04 05:02 -37.68543 144.84170 357 ft 20 kts 286°
2026-05-04 05:02 -37.68447 144.84075 356 ft 8 kts 349°
2026-05-04 05:02 -37.68404 144.84066 360 ft 32 kts 351°
2026-05-04 05:03 -37.67795 144.83960 371 ft 146 kts 352°
2026-05-04 05:03 -37.66455 144.83679 737 ft 222 kts 349°
2026-05-04 05:04 -37.61673 144.82544 4361 ft 237 kts 351°
2026-05-04 05:04 -37.60030 144.82317 4904 ft 238 kts 354°
2026-05-04 05:04 -37.58379 144.82717 4976 ft 252 kts 21°
2026-05-04 05:06 -37.57374 144.95720 9402 ft 325 kts 123°
2026-05-04 05:06 -37.58591 144.98135 10406 ft 328 kts 121°
2026-05-04 05:06 -37.59829 145.00638 11014 ft 348 kts 122°
2026-05-04 05:07 -37.61191 145.03323 11270 ft 378 kts 123°
2026-05-04 05:07 -37.62690 145.06195 11627 ft 403 kts 123°
2026-05-04 05:07 -37.64272 145.09163 12478 ft 413 kts 124°
2026-05-04 05:09 -37.77994 145.34377 19463 ft 462 kts 123°
2026-05-04 05:09 -37.79821 145.37746 20187 ft 468 kts 122°
2026-05-04 05:10 -37.81672 145.41163 20880 ft 475 kts 122°
2026-05-04 05:10 -37.83553 145.44639 21577 ft 482 kts 122°
2026-05-04 05:10 -37.85458 145.48161 22253 ft 488 kts 122°
2026-05-04 05:10 -37.87383 145.51725 22955 ft 494 kts 121°
2026-05-04 05:11 -37.89329 145.55331 23589 ft 498 kts 121°
2026-05-04 05:11 -37.91104 145.59117 24039 ft 501 kts 111°
2026-05-04 05:11 -37.92378 145.63216 24558 ft 500 kts 102°
2026-05-04 05:11 -37.93204 145.67479 25137 ft 497 kts 94°
2026-05-04 05:12 -37.93580 145.71804 25694 ft 494 kts 88°
2026-05-04 05:12 -37.93873 145.76160 26192 ft 500 kts 89°
2026-05-04 05:12 -37.94193 145.80576 26705 ft 506 kts 89°
2026-05-04 05:12 -37.94534 145.85027 27238 ft 510 kts 89°
2026-05-04 05:13 -37.94890 145.89517 27774 ft 514 kts 89°
2026-05-04 05:13 -37.95251 145.94031 28261 ft 517 kts 89°
2026-05-04 05:13 -37.95622 145.98585 28738 ft 521 kts 89°
2026-05-04 05:13 -37.95996 146.03166 29195 ft 524 kts 89°
2026-05-04 05:14 -37.96366 146.07774 29608 ft 527 kts 89°
2026-05-04 05:14 -37.96736 146.12397 30063 ft 528 kts 89°
2026-05-04 05:14 -37.97103 146.17023 30516 ft 527 kts 89°
2026-05-04 05:14 -37.97466 146.21638 30974 ft 527 kts 89°
2026-05-04 05:15 -37.97829 146.26260 31420 ft 527 kts 89°
2026-05-04 05:15 -37.98190 146.30885 31857 ft 527 kts 89°
2026-05-04 05:15 -37.98549 146.35517 32286 ft 528 kts 89°
2026-05-04 05:15 -37.98905 146.40143 32701 ft 528 kts 89°
2026-05-04 05:16 -37.99258 146.44771 33118 ft 528 kts 89°
2026-05-04 05:16 -37.99611 146.49405 33494 ft 528 kts 88°
2026-05-04 05:16 -37.99961 146.54047 33903 ft 528 kts 88°
2026-05-04 05:16 -38.00305 146.58620 34214 ft 529 kts 89°
2026-05-04 05:17 -38.00652 146.63268 34485 ft 530 kts 89°
2026-05-04 05:17 -38.01000 146.67926 34757 ft 531 kts 89°
2026-05-04 05:17 -38.01347 146.72595 35065 ft 532 kts 89°
2026-05-04 05:17 -38.01690 146.77257 35366 ft 532 kts 89°
2026-05-04 05:18 -38.02034 146.81940 35646 ft 533 kts 89°
2026-05-04 05:18 -38.02374 146.86612 35939 ft 533 kts 89°
2026-05-04 05:18 -38.02714 146.91299 36221 ft 533 kts 89°
2026-05-04 05:18 -38.03053 146.95989 36500 ft 534 kts 89°
2026-05-04 05:19 -38.03389 147.00675 36787 ft 534 kts 89°
2026-05-04 05:19 -38.03724 147.05385 36847 ft 539 kts 89°
2026-05-04 05:19 -38.04394 147.14852 36889 ft 537 kts 89°
2026-05-04 05:20 -38.05058 147.24284 36891 ft 531 kts 89°
2026-05-04 05:20 -38.05698 147.33539 36901 ft 530 kts 89°
2026-05-04 05:21 -38.06332 147.42852 36906 ft 530 kts 89°
2026-05-04 05:21 -38.06959 147.52162 36908 ft 530 kts 89°
2026-05-04 05:22 -38.07580 147.61480 36913 ft 530 kts 89°
2026-05-04 05:22 -38.08195 147.70810 36914 ft 530 kts 88°
2026-05-04 05:23 -38.08802 147.80136 36920 ft 530 kts 88°
2026-05-04 05:23 -38.09402 147.89463 36919 ft 530 kts 88°
2026-05-04 05:24 -38.09994 147.98791 36912 ft 530 kts 88°
2026-05-04 05:24 -38.10579 148.08112 36912 ft 530 kts 88°
2026-05-04 05:25 -38.11156 148.17444 36914 ft 530 kts 88°
2026-05-04 05:25 -38.11726 148.26769 36923 ft 530 kts 88°
2026-05-04 05:26 -38.12288 148.36097 36927 ft 530 kts 88°
2026-05-04 05:26 -38.12843 148.45421 36925 ft 529 kts 87°
2026-05-04 05:28 -38.14985 148.82668 36931 ft 527 kts 87°
2026-05-04 05:29 -38.15501 148.91956 36929 ft 527 kts 87°
2026-05-04 05:29 -38.16008 149.01225 36926 ft 526 kts 86°
2026-05-04 05:31 -38.17955 149.38171 36919 ft 524 kts 86°
2026-05-04 05:32 -38.18424 149.47408 36920 ft 523 kts 86°
2026-05-04 05:33 -38.19113 149.61252 36916 ft 523 kts 86°
2026-05-04 05:33 -38.19563 149.70485 36924 ft 523 kts 86°
2026-05-04 05:34 -38.20006 149.79711 36920 ft 522 kts 86°
2026-05-04 05:34 -38.20441 149.88922 36915 ft 521 kts 86°
2026-05-04 05:35 -38.20868 149.98116 36911 ft 520 kts 86°
2026-05-04 05:35 -38.21287 150.07287 36918 ft 519 kts 86°
2026-05-04 05:36 -38.21697 150.16432 36911 ft 518 kts 86°
2026-05-04 05:36 -38.22032 150.24024 36912 ft 517 kts 86°
2026-05-04 05:37 -38.22429 150.33128 36899 ft 515 kts 87°
2026-05-04 05:37 -38.23057 150.42231 36900 ft 517 kts 90°
2026-05-04 05:38 -38.24276 150.55846 36917 ft 516 kts 90°
2026-05-04 05:38 -38.25040 150.64928 36911 ft 516 kts 90°
2026-05-04 05:39 -38.26114 150.78487 36905 ft 516 kts 90°
2026-05-04 05:40 -38.27176 150.92169 36907 ft 516 kts 90°
2026-05-04 05:40 -38.27870 151.01198 36907 ft 516 kts 90°
2026-05-04 05:41 -38.28564 151.10283 36906 ft 516 kts 90°
2026-05-04 05:41 -38.29250 151.19361 36908 ft 515 kts 90°
2026-05-04 05:42 -38.29928 151.28439 36907 ft 515 kts 90°
2026-05-04 05:42 -38.30598 151.37500 36911 ft 514 kts 90°
2026-05-04 05:43 -38.31260 151.46546 36910 ft 513 kts 90°
2026-05-04 05:45 -38.33827 151.82598 36925 ft 508 kts 90°
2026-05-04 05:47 -38.36257 152.18281 36923 ft 503 kts 90°
2026-05-04 05:47 -38.36844 152.27154 36926 ft 502 kts 90°
2026-05-04 05:48 -38.37424 152.36018 36930 ft 502 kts 90°
2026-05-04 05:48 -38.37997 152.44884 36932 ft 502 kts 90°
2026-05-04 05:49 -38.38563 152.53762 36936 ft 503 kts 90°
2026-05-04 05:49 -38.39124 152.62647 36945 ft 503 kts 90°
2026-05-04 05:51 -38.41310 152.98364 36967 ft 508 kts 90°
2026-05-04 05:52 -38.41843 153.07355 36963 ft 509 kts 90°
2026-05-04 05:52 -38.42370 153.16364 36965 ft 510 kts 90°
2026-05-04 05:54 -38.44414 153.52469 36977 ft 511 kts 90°
2026-05-04 05:55 -38.44908 153.61517 36984 ft 511 kts 90°
2026-05-04 05:55 -38.45381 153.70273 36987 ft 511 kts 90°
2026-05-04 05:56 -38.45866 153.79310 36991 ft 510 kts 90°
2026-05-04 05:56 -38.46147 153.84605 36986 ft 510 kts 91°